{"data":{"norad_id":48674,"intl_designator":"2021-044AN","name":"STARLINK-2712","alt_names":[],"object_type":"PAYLOAD","status":"ACTIVE","operator":null,"country":"US","launch_date":"2021-05-26","launch_site_code":"AFETR","launch_vehicle":null,"mission":null,"orbit_class":"UNKNOWN","rcs_meters":null,"size_class":null,"mass_kg":null,"dimensions":null,"purposes":["comms"],"wikipedia_slug":null,"has_3d_model":false,"image_url":null,"decayed_at":null,"tle_current":{"epoch":"2026-05-25T04:46:33.390048Z","epoch_age_seconds":47996,"freshness":"FRESH","line1":"1 48674U 21044AN  26145.19899757 -.00000442  00000+0 -29832-5 0  9993","line2":"2 48674  53.1617 118.5664 0001203  91.4257 268.6881 15.29351221275520","mean_motion":15.29351221,"eccentricity":0.0001203,"inclination_deg":53.1617,"raan_deg":118.5664,"arg_perigee_deg":91.4257,"mean_anomaly_deg":268.6881,"bstar":-2.9832e-6,"rev_number":27552,"period_min":94.157573500901,"perigee_km":476.92577927543,"apogee_km":478.57530581816,"semimajor_km":6855.8875425468,"source":"CELESTRAK","updated_at":"2026-05-25T13:38:16.759771Z"}}}